カタログに戻る

OPS 6630 DEB

運用中PO
NORAD 7559·DEBRIS·🇺🇸 United States

打ち上げ Nov 10, 1973 から Vandenberg Space Force Base

Loading…

次のパス (今後24時間)

TLE

最新Source: Space-Track

元期: Sep 14, 2026, 07:55 UTC

1 07559U 73088E   26257.33005426 -.00000014  00000-0  22934-4 0  9997
2 07559  96.7986  25.5777 0048707 153.6179 238.1996 12.56122238421854

AllMySatでOPS 6630 DEBをリアルタイム追跡

Download on the App Store